• MPC Preparation (Info)

  • MPEC 2000-N28 : 2000 NL10

    The following Minor Planet Electronic Circular may be linked-to from your own Web pages, but must not otherwise be redistributed electronically.

    A form allowing access to any MPEC is at the bottom of this page.


    Read MPEC 2000-N27 Read MPEC 2000-N29


    M.P.E.C. 2000-N28                                Issued 2000 July 12, 14:20 UT
    
         The Minor Planet Electronic Circulars contain information on unusual
             minor planets and routine data on comets.  They are published
       on behalf of Commission 20 of the International Astronomical Union by the
              Minor Planet Center, Smithsonian Astrophysical Observatory,
                              Cambridge, MA 02138, U.S.A.
    
                 Prepared using the Tamkin Foundation Computer Network
    
                 BMARSDEN@CFA.HARVARD.EDU or GWILLIAMS@CFA.HARVARD.EDU
              URL http://cfa-www.harvard.edu/iau/mpc.html  ISSN 1523-6714
    
                                       2000 NL10
    
    Observations:
         K00N10L* C2000 07 10.39442 23 40 11.68 +47 52 09.7          18.1        704
         K00N10L  C2000 07 10.40680 23 40 10.78 +47 52 27.3          18.3        704
         K00N10L  C2000 07 10.41921 23 40 09.89 +47 52 43.6          18.1        704
         K00N10L  C2000 07 10.43161 23 40 09.02 +47 53 00.4          18.7        704
         K00N10L  C2000 07 10.95657 23 39 33.52 +48 04 41.2          17.5 R      163
         K00N10L  C2000 07 10.96285 23 39 33.09 +48 04 49.7          17.4 R      163
         K00N10L  C2000 07 11.03620 23 39 27.77 +48 06 30.5                      118
         K00N10L  C2000 07 11.04024 23 39 27.53 +48 06 35.8                      118
         K00N10L  C2000 07 11.04389 23 39 27.25 +48 06 40.8                      118
         K00N10L  C2000 07 11.90301 23 38 25.74 +48 25 44.2          19.0 V      557
         K00N10L  C2000 07 11.90999 23 38 25.18 +48 25 54.6                      557
         K00N10L  C2000 07 11.91231 23 38 25.07 +48 25 57.8                      557
         K00N10L  C2000 07 11.91464 23 38 24.88 +48 25 59.9                      557
         K00N10L 1C2000 07 12.32912 23 37 53.94 +48 35 11.6                      658
         K00N10L 1C2000 07 12.33178 23 37 53.71 +48 35 15.1                      658
         K00N10L 1C2000 07 12.33610 23 37 53.35 +48 35 20.9                      658
    
    Observer details:
    118 Modra.  Observers S. Gajdos, L. Kornos.  0.6-m f/5.5 reflector + CCD.
    163 Roeser Observatory, Luxembourg.  Observer M. Dawson.  0.457-m f/4.5
        reflector + CCD.
    557 Ondrejov.  Observer P. Kusnirak.  0.65-m f/3.6 reflector + CCD.
    658 Dominion Astrophysical Observatory.  Observer D. D. Balam.  1.82-m
        reflector + CCD.
    704 Lincoln Laboratory ETS, New Mexico.  Observers M. Blythe, F. Shelly,
        M. Bezpalko, M. Elowitz, R. Huber, L. Manguso.  Measurers J. Stuart,
        R. Sayer, J. B. Evans.  1.0-m f/2.15 reflector + CCD.
    
    Orbital elements:
    2000 NL10
    Epoch 2000 June 25.0 TT = JDT 2451720.5                 Williams
    M 104.23810              (2000.0)            P               Q
    n   1.11597940     Peri.  280.44631     -0.80290266     -0.37445366
    a   0.9205172      Node   239.08107     +0.45879281     -0.88495698
    e   0.8212576      Incl.   32.72805     -0.38060016     -0.27683136
    P   0.88           H   15.8           G   0.15
    From 16 observations 2000 July 10-12.
    
    Ephemeris:
    2000 NL10                a,e,i = 0.92, 0.82, 33                  q = 0.1645
    Date    TT    R. A. (2000) Decl.     Delta      r     Elong.  Phase     V
    2000 07 05    23 45.17   +45 48.9    1.222    1.528    85.6    41.6    18.8
    2000 07 15    23 34.23   +49 33.4    1.171    1.576    91.9    40.2    18.7
    2000 07 25    23 14.82   +52 52.0    1.119    1.614    98.1    38.5    18.6
    2000 08 04    22 45.23   +55 18.2    1.070    1.643   104.0    36.8    18.5
    2000 08 14    22 06.33   +56 15.5    1.028    1.663   109.1    35.1    18.4
    2000 08 24    21 23.51   +55 11.9    0.997    1.674   112.9    33.8    18.3
    2000 09 03    20 44.82   +52 01.1    0.981    1.676   114.8    33.1    18.3
    2000 09 13    20 15.93   +47 10.5    0.982    1.670   114.3    33.3    18.3
    2000 09 23    19 57.77   +41 24.6    0.999    1.655   111.5    34.3    18.3
    2000 10 03    19 48.78   +35 24.3    1.030    1.632   106.9    35.9    18.4
    2000 10 13    19 46.86   +29 39.2    1.073    1.599   101.0    37.8    18.5
    2000 10 23    19 50.20   +24 25.4    1.122    1.557    94.5    39.6    18.6
    2000 11 02    19 57.51   +19 49.3    1.173    1.504    87.6    41.2    18.6
    2000 11 12    20 07.86   +15 51.3    1.221    1.442    80.7    42.6    18.7
    2000 11 22    20 20.60   +12 27.7    1.261    1.368    73.8    43.9    18.7
    2000 12 02    20 35.31   +09 33.3    1.290    1.282    67.0    45.1    18.6
    2000 12 12    20 51.66   +07 01.3    1.303    1.182    60.3    46.4    18.5
    
    Gareth V. Williams           (C) Copyright 2000 MPC           M.P.E.C. 2000-N28
    

    Read MPEC 2000-N27 Read MPEC 2000-N29


    MPEC number:

    Enter an MPEC number in one of the following forms:

    • 1997-B01 (the full form)
    • J97B01 (the packed version of the full form)
    • B01 (the abbreviated form)